FW2485 Weather Reports


time (UTC)temp
F
wind
direction
speed
knots
gust
knots
rain 1hr
in
rain 24hr
in
rain mn
in
humidity
%
barometer
mb
20260505064202 64 178 0.9 1.7 0.00 0.00 0.00 69 1008.2
20260505064001 63 102 0.9 1.7 0.00 0.00 0.00 71 1008.2
20260505063203 63 331 0.9 2.6 0.00 0.00 0.00 71 1008.2
20260505063006 62 269 0.9 4.3 0.00 0.00 0.00 72 1008.3
20260505062203 61 76 0.9 4.3 0.00 0.00 0.00 73 1008.3
20260505061703 61 227 0.9 2.6 0.00 0.00 0.00 73 1008.4
20260505061204 60 269 0.9 2.6 0.00 0.00 0.00 73 1008.4
20260505060702 60 269 0.9 2.6 0.00 0.00 0.00 75 1008.4
20260505060203 59 314 0.9 2.6 0.00 0.00 0.00 75 1008.4
20260505055702 59 241 0.9 3.5 0.00 0.00 0.00 76 1008.4
20260505055157 58 269 0.9 4.3 0.00 0.00 0.00 76 1008.4
20260505054652 58 223 0.9 4.3 0.00 0.00 0.00 77 1008.4
20260505054154 58 252 0.9 3.5 0.00 0.00 0.00 77 1008.4
20260505054009 57 231 0.9 3.5 0.00 0.00 0.00 77 1008.3
20260505053152 57 89 0.9 3.5 0.00 0.00 0.00 78 1008.3
20260505052652 57 250 0.9 2.6 0.00 0.00 0.00 78 1008.3
20260505052152 56 259 0.9 2.6 0.00 0.00 0.00 79 1008.3
20260505051652 56 314 0.9 2.6 0.00 0.00 0.00 79 1008.3
20260505051154 56 241 1.7 4.3 0.00 0.00 0.00 79 1008.3
20260505050652 56 269 1.7 4.3 0.00 0.00 0.00 79 1008.3
20260505050458 55 303 1.7 3.5 0.00 0.00 0.00 80 1008.2
20260505041640 55 269 0.9 1.7 0.00 0.00 0.00 77 1008.4
20260505041142 55 237 0.9 1.7 0.00 0.00 0.00 77 1008.4
20260505040746 56 269 0.9 1.7 0.00 0.00 0.00 76 1008.3
20260505040727 56 283 0.9 1.7 0.00 0.00 0.00 76 1008.4
20260505035642 56 254 0.9 1.7 0.00 0.00 0.00 75 1008.4
20260505035141 56 250 0.9 1.7 0.00 0.00 0.00 75 1008.4
20260505034642 56 269 0.9 1.7 0.00 0.00 0.00 75 1008.4
20260505034442 57 296 0.9 1.7 0.00 0.00 0.00 74 1008.4
20260505033639 57 46 0.9 1.7 0.00 0.00 0.00 74 1008.4
20260505033138 57 269 0.0 0.9 0.00 0.00 0.00 74 1008.5
20260505032935 57 314 0.9 1.7 0.00 0.00 0.00 74 1008.5
20260505032135 57 269 0.9 1.7 0.00 0.00 0.00 74 1008.6
20260505031632 57 269 0.9 3.5 0.00 0.00 0.00 74 1008.5
20260505031440 57 314 0.9 3.5 0.00 0.00 0.00 73 1008.6
20260505030632 57 321 0.9 1.7 0.00 0.00 0.00 73 1008.6
20260505030132 57 257 0.9 2.6 0.00 0.00 0.00 73 1008.5
20260505025632 58 269 0.9 2.6 0.00 0.00 0.00 73 1008.5
20260505025131 58 246 0.9 1.7 0.00 0.00 0.00 73 1008.5
20260505024631 58 296 0.9 1.7 0.00 0.00 0.00 73 1008.5
20260505024130 58 229 0.9 1.7 0.00 0.00 0.00 73 1008.6
20260505023629 58 253 0.9 1.7 0.00 0.00 0.00 73 1008.6
20260505023130 58 89 0.9 1.7 0.00 0.00 0.00 73 1008.6
20260505022931 59 300 0.0 1.7 0.00 0.00 0.00 73 1008.7
20260505022131 59 46 0.9 1.7 0.00 0.00 0.00 73 1008.7
20260505021629 59 314 0.9 2.6 0.00 0.00 0.00 73 1008.7
20260505021132 59 1 0.9 2.6 0.00 0.00 0.00 73 1008.8
20260505020631 59 254 0.9 1.7 0.00 0.00 0.00 72 1008.7
20260505020133 59 269 0.9 1.7 0.00 0.00 0.00 72 1008.7
20260505015628 59 269 0.9 1.7 0.00 0.00 0.00 72 1008.7
20260505015426 60 314 0.9 1.7 0.00 0.00 0.00 71 1008.8
20260505014624 60 269 0.9 1.7 0.00 0.00 0.00 71 1008.7
20260505014124 60 269 0.9 1.7 0.00 0.00 0.00 71 1008.6
20260505013626 60 250 0.9 1.7 0.00 0.00 0.00 71 1008.8
20260505013121 60 234 0.9 1.7 0.00 0.00 0.00 71 1008.8
20260505012621 60 283 0.0 1.7 0.00 0.00 0.00 71 1008.7
20260505012120 61 241 0.9 1.7 0.00 0.00 0.00 71 1008.7
20260505011938 61 250 0.9 1.7 0.00 0.00 0.00 71 1008.8
20260505011118 61 250 0.0 1.7 0.00 0.00 0.00 70 1008.8
20260505010734 62 269 0.0 1.7 0.00 0.00 0.00 70 1009.0
20260505010709 61 72 0.0 1.7 0.00 0.00 0.00 70 1008.8
20260505005611 62 269 0.0 1.7 0.00 0.00 0.00 70 1008.9
20260505005104 62 241 0.0 1.7 0.00 0.00 0.00 69 1009.0
20260505004604 62 296 0.0 1.7 0.00 0.00 0.00 69 1009.2
20260505004103 62 89 0.0 1.7 0.00 0.00 0.00 69 1009.4
20260505003607 62 46 0.9 1.7 0.00 0.00 0.00 69 1009.4
20260505003105 62 269 0.9 2.6 0.00 0.00 0.00 69 1009.4
20260505002603 62 269 0.9 3.5 0.00 0.00 0.00 68 1009.6
20260505002407 62 269 0.9 3.5 0.00 0.00 0.00 68 1009.6
20260505001604 63 258 0.9 4.3 0.00 0.00 0.00 68 1009.7
20260505001104 63 283 1.7 4.3 0.00 0.00 0.00 67 1009.7
20260505000604 63 314 1.7 4.3 0.00 0.00 0.00 67 1009.7
20260505000104 63 253 1.7 5.2 0.00 0.00 0.00 66 1009.8
20260504235603 64 288 1.7 5.2 0.00 0.00 0.00 65 1009.9
20260504235103 64 271 0.9 4.3 0.00 0.00 0.00 65 1009.9
20260504234714 65 135 1.7 3.5 0.00 0.00 0.00 61 1010.1
20260504234648 64 252 1.7 3.5 0.00 0.00 0.00 64 1010.0
20260504233603 65 245 0.9 4.3 0.00 0.00 0.00 61 1010.2
20260504233107 65 241 0.9 4.3 0.00 0.00 0.00 60 1010.3
20260504232913 65 283 0.9 3.5 0.00 0.00 0.00 59 1010.4
20260504232400 65 286 0.9 3.5 0.00 0.00 0.00 57 1010.6
20260504231555 65 46 0.9 3.5 0.00 0.00 0.00 57 1010.7
20260504231049 65 1 0.9 3.5 0.00 0.00 0.00 56 1010.7
20260504230545 65 135 1.7 5.2 0.00 0.00 0.00 56 1010.6
20260504230036 65 296 1.7 5.2 0.00 0.00 0.00 56 1010.6
20260504225533 65 269 2.6 7.8 0.00 0.00 0.00 56 1010.7
20260504225032 65 269 2.6 7.8 0.00 0.00 0.00 56 1010.7
20260504224832 65 169 1.7 5.2 0.00 0.00 0.00 57 1010.8
20260504224032 66 213 1.7 4.3 0.00 0.00 0.00 57 1010.7
20260504223536 66 303 0.9 3.5 0.00 0.00 0.00 56 1010.6
20260504223326 66 223 1.7 4.3 0.00 0.00 0.00 55 1010.5
20260504222530 66 257 1.7 4.3 0.00 0.00 0.00 55 1010.4
20260504222030 66 305 1.7 4.3 0.00 0.00 0.00 54 1010.4
20260504221532 66 239 1.7 3.5 0.00 0.00 0.00 54 1010.4
20260504221031 66 285 1.7 3.5 0.00 0.00 0.00 54 1010.4
20260504220530 66 253 0.9 3.5 0.00 0.00 0.00 54 1010.4
20260504220032 66 284 0.9 2.6 0.00 0.00 0.00 54 1010.3
20260504215534 66 241 0.9 2.6 0.00 0.00 0.00 54 1010.4
20260504215030 66 215 1.7 3.5 0.00 0.00 0.00 54 1010.3
20260504214532 66 231 1.7 3.5 0.00 0.00 0.00 54 1010.3
20260504214031 66 252 0.9 3.5 0.00 0.00 0.00 53 1010.3
20260504213638 66 223 0.9 3.5 0.00 0.00 0.00 53 1010.5
20260504213616 66 296 0.9 3.5 0.00 0.00 0.00 53 1010.4
20260504212533 66 252 0.9 3.5 0.00 0.00 0.00 53 1010.5
20260504212031 66 250 0.9 2.6 0.00 0.00 0.00 53 1010.5
20260504211531 67 237 0.9 2.6 0.00 0.00 0.00 52 1010.5
20260504211032 67 250 0.9 2.6 0.00 0.00 0.00 52 1010.5
20260504210533 67 250 0.9 2.6 0.00 0.00 0.00 52 1010.5
20260504210032 67 241 0.9 2.6 0.00 0.00 0.00 52 1010.4
20260504205532 67 255 0.9 2.6 0.00 0.00 0.00 51 1010.5
20260504205034 67 241 0.9 2.6 0.00 0.00 0.00 51 1010.4
20260504204530 67 223 0.9 2.6 0.00 0.00 0.00 51 1010.5
20260504204031 67 241 0.9 2.6 0.00 0.00 0.00 51 1010.5
20260504203830 67 250 0.9 2.6 0.00 0.00 0.00 50 1010.4
20260504203029 67 269 0.9 2.6 0.00 0.00 0.00 50 1010.5
20260504202530 68 269 0.9 2.6 0.00 0.00 0.00 50 1010.5
20260504202032 68 269 0.9 2.6 0.00 0.00 0.00 50 1010.4
20260504201824 68 117 0.9 2.6 0.00 0.00 0.00 50 1010.4
20260504201340 68 213 0.9 2.6 0.00 0.00 0.00 50 1010.4
20260504200530 68 223 0.9 2.6 0.00 0.00 0.00 49 1010.4
20260504200025 69 241 0.9 3.5 0.00 0.00 0.00 49 1010.5
20260504195527 69 241 0.9 3.5 0.00 0.00 0.00 48 1010.5
20260504195025 69 246 0.9 3.5 0.00 0.00 0.00 49 1010.6
20260504194524 69 269 0.9 2.6 0.00 0.00 0.00 48 1010.5
20260504194026 69 246 0.9 2.6 0.00 0.00 0.00 47 1010.6
20260504193525 69 269 0.9 3.5 0.00 0.00 0.00 47 1010.5
20260504193022 70 213 0.9 3.5 0.00 0.00 0.00 47 1010.5
20260504192520 70 238 0.9 3.5 0.00 0.00 0.00 46 1010.5
20260504192020 70 257 0.9 3.5 0.00 0.00 0.00 46 1010.5
20260504191521 70 46 0.9 3.5 0.00 0.00 0.00 45 1010.5
20260504191019 70 223 0.9 3.5 0.00 0.00 0.00 45 1010.4
20260504190815 71 223 0.9 2.6 0.00 0.00 0.00 45 1010.4
20260504190020 71 269 0.9 2.6 0.00 0.00 0.00 45 1010.4
20260504185518 71 238 0.9 2.6 0.00 0.00 0.00 44 1010.4
20260504185017 71 296 0.9 2.6 0.00 0.00 0.00 44 1010.3
20260504184812 71 253 0.9 2.6 0.00 0.00 0.00 43 1010.3
20260504184017 72 277 0.9 2.6 0.00 0.00 0.00 43 1010.2
20260504183516 72 269 0.9 1.7 0.00 0.00 0.00 42 1010.2
20260504183016 72 253 0.9 1.7 0.00 0.00 0.00 43 1010.2
20260504182514 73 306 0.9 1.7 0.00 0.00 0.00 42 1010.2
20260504182308 73 269 0.9 1.7 0.00 0.00 0.00 42 1010.2
20260504181516 73 1 0.0 1.7 0.00 0.00 0.00 41 1010.2
20260504181013 73 269 0.0 1.7 0.00 0.00 0.00 42 1010.1
20260504180512 73 46 0.0 1.7 0.00 0.00 0.00 41 1010.1
20260504180010 74 206 0.0 1.7 0.00 0.00 0.00 41 1010.0
20260504175509 74 269 0.0 1.7 0.00 0.00 0.00 41 1010.1
20260504175005 74 178 0.9 1.7 0.00 0.00 0.00 40 1010.1
20260504174509 74 250 0.9 1.7 0.00 0.00 0.00 40 1010.1
20260504174004 74 286 0.0 1.7 0.00 0.00 0.00 40 1010.1
20260504173503 74 241 0.0 1.7 0.00 0.00 0.00 41 1010.1
20260504173004 74 89 0.0 1.7 0.00 0.00 0.00 41 1010.2
20260504172504 74 46 0.9 2.6 0.00 0.00 0.00 41 1010.3
20260504172003 74 46 0.9 2.6 0.00 0.00 0.00 39 1010.3
20260504171503 75 269 0.9 2.6 0.00 0.00 0.00 41 1010.3
20260504171003 75 269 0.9 2.6 0.00 0.00 0.00 40 1010.3
20260504170503 75 241 0.9 2.6 0.00 0.00 0.00 40 1010.3
20260504160436 78 234 0.9 2.6 0.00 0.00 0.00 36 1010.6
20260504150928 80 124 0.9 3.5 0.00 0.00 0.00 34 1010.6
20260504150427 80 178 0.9 3.5 0.00 0.00 0.00 34 1010.6
20260504140929 82 241 1.7 5.2 0.00 0.00 0.00 33 1011.1
20260504140428 82 121 1.7 5.2 0.00 0.00 0.00 32 1011.1
20260504130724 79 35 1.7 4.3 0.00 0.00 0.00 35 1011.8
20260504110403 77 67 1.7 4.3 0.00 0.00 0.00 36 1013.3
20260504100403 77 1 0.9 3.5 0.00 0.00 0.00 38 1014.2
20260504081905 72 234 0.9 2.6 0.00 0.00 0.00 45 1014.6
20260504081656 71 89 0.9 2.6 0.00 0.00 0.00 46 1014.7
20260504080902 71 286 0.9 4.3 0.00 0.00 0.00 47 1014.7
20260504080403 70 314 0.9 4.3 0.00 0.00 0.00 45 1014.7
20260504070345 64 223 0.9 2.6 0.00 0.00 0.00 53 1014.8
20260504070159 64 269 0.9 3.5 0.00 0.00 0.00 57 1014.8